AirNav   Everest Fuels
 
 654 users online  

KHEY Hanchey Army Heliport (Fort Rucker)
Fort Rucker/Ozark, Alabama, USA

GOING TO FORT RUCKER/OZARK?


FAA INFORMATION EFFECTIVE 02 JANUARY 2020

Location

FAA Identifier: HEY
Lat/Long: 31-21-20.6430N 085-39-06.7070W
31-21.344050N 085-39.111783W
31.3557342,-85.6518631
(estimated)
Elevation: 317.9 ft. / 96.9 m (surveyed)
Variation: 03W (2010)
From city: 4 miles SE of FORT RUCKER OZARK, AL
Time zone: UTC -6 (UTC -5 during Daylight Saving Time)
Zip code: 36362

Heliport Operations

Heliport use: Private use. Permission required prior to landing
Control tower: yes
ARTCC: JACKSONVILLE CENTER
FSS: ANNISTON FLIGHT SERVICE STATION
NOTAMs facility: OZR (NOTAM-D service available)
Attendance: MON-FRI 0600-0030, EXCP HOL
Pattern altitude: 900.9 ft. MSL
TFC PAT ALT 900' MSL.
Segmented circle: no
Lights: SS-SR
Beacon: white (unlighted land airport)
Operates sunset to sunrise.

Heliport Communications

ATIS: 141.375
HANCHEY GROUND: 142.55 225.575 [OPR 1145-0645Z++ OR TIL MISSION CMPLT, MON-FRI EXC HOL, OT CTC CAIRNS TWR.]
HANCHEY TOWER: 140.5 387.85 [OPR 1145-0645Z++ OR TIL MISSION CMPLT, MON-FRI EXC HOL, OT CTC CAIRNS TWR.]
CAIRNS APPROACH: 121.1
CAIRNS DEPARTURE: 121.1
CLEARANCE DELIVERY: 118.075
EMERG: 121.5 243.0
RADAR: 134.1 135.4 229.6 242.6
WX ASOS at DHN (11 nm E): PHONE 334-983-5999
WX AWOS-3PT at EDN (13 nm W): 118.9 (334-347-3524)
  • APCH/DEP SVC PRVDD BY JACKSONVILLE ARTCC ON FREQS 134.3/353.5 (DOTHAN RCAG) WHEN CAIRNS APCH/DEP CLSD.

Nearby radio navigation aids

VOR radial/distance  VOR name  Freq  Var
HEYr181/(1.1)HANCHEY VOR110.6003W
OZRr039/6.5CAIRNS VOR/DME111.2003W
RRSr289/12.1WIREGRASS VORTAC111.6002E
EDNr078/(13.3)ENTERPRISE VOR116.6003W

 
NDB name  Hdg/Dist  Freq  Var  ID
HANCHEY178/1.222103WHYE .... -.-- .
LOWE097/4.726903WLOR .-.. --- .-.
RUCKR050/11.521203WOZ --- --..
BOLL WEEVIL090/16.935203WBVG -... ...- --.
SOYYA325/36.432902WSMY ... -- -.--
BLOOD145/36.836504WTOI - --- ..
JUDD087/38.026402WJUY .--- ..- -.--

Heliport Services

Runway Information

Runway 17/35

Dimensions: 476 x 50 ft. / 145 x 15 m
Surface: asphalt, in fair condition
Runway edge lights: medium intensity
RUNWAY 17  RUNWAY 35
Latitude: 31-21.383267N31-21.304817N
Longitude: 085-39.114167W085-39.109383W
Elevation: 317.9 ft.317.9 ft.
Traffic pattern: leftleft
Runway heading: 180 magnetic, 177 true000 magnetic, 357 true
Markings: precision, in fair conditionprecision, in fair condition
Touchdown point: yes, no lightsyes, no lights

Heliport Ownership and Management from official FAA records

Ownership: U.S. Army
Owner: US ARMY HANCHEY ARMY HELIPAD
9325 GUNSTON ROAD
FT BELVOIR, VA 22060
Manager: PAUL MEISSNER
Phone 334-255-2680

Additional Remarks

FUEL: 100, J8
LGT: HI INTS ROT BCN, 60/80 WHITE FLASHES PER MIN.
OPR 1145-0645Z++OR UNTIL MISSION COMPLETE, MON-FRI EXC HOL, OT CTC CAIRNS TWR. SEE FLIP AP/1, FLT HAZ, FORT RUCKER.
RSTD: NO TRAN ACFT.
CAUTION: INTS STU TRNG.
(RWY LENGTH SOURCE DATE, RWY 17/35) HELICOPTER RWY

Instrument Procedures

NOTE: All procedures below are presented as PDF files. If you need a reader for these files, you should download the free Adobe Reader.

NOT FOR NAVIGATION. Please procure official charts for flight.
FAA instrument procedures published for use from 02 January 2020 at 0901Z to 30 January 2020 at 0900Z.

 
IAPs - Instrument Approach Procedures
COPTER RNAV (GPS) RWY 17   download (83KB)
COPTER VOR RWY 17   download (80KB)
COPTER NDB RWY 17   download (79KB)
NOTE: Special Take-Off Minimums/Departure Procedures apply   download (189KB)

Other nearby airports with instrument procedures:

71J - Ozark-Blackwell Field Airport (5 nm N)
KLOR - Lowe Army Heliport (Fort Rucker) (5 nm W)
KOZR - Cairns Army Airfield (Fort Rucker) (6 nm SW)
KDHN - Dothan Regional Airport (11 nm E)
KEDN - Enterprise Municipal Airport (13 nm W)
0J6 - Headland Municipal Airport (17 nm E)
 
Loc | Ops | Rwys | IFR | FBO | Links
Com | Nav | Svcs | Stats | Notes

Continental Services
AirBoss

 
Area around KHEY (Hanchey Army Heliport (Fort Rucker))
 
Road maps at: MapQuest Bing Google
 
Aerial photo
WARNING: Photo may not be current or correct
Aerial photo of KHEY (Hanchey Army Heliport (Fort Rucker))
Do you have a better or more recent aerial photo of Hanchey Army Heliport (Fort Rucker) that you would like to share? If so, please send us your photo.

 
Sectional chart

 
Airport distance calculator
Flying to Hanchey Army Heliport (Fort Rucker)? Find the distance to fly.

From to KHEY

Sunrise and sunset
Times for 23-Jan-2020
 Local
(UTC-6)
 Zulu
(UTC)
Morning civil twilight06:1512:15
Sunrise06:4112:41
Sunset17:0823:08
Evening civil twilight17:3423:34

Current date and time
Zulu (UTC)  23-Jan-2020 06:00:29
Local (UTC-6)  23-Jan-2020 00:00:29
 
METAR
KHEY 230514Z AUTO 09007KT 10SM FEW035 08/M05 A3020 RMK AO2 PRESFR SLP230
KLOR 
5nm W 
230507Z AUTO 06006KT 10SM FEW140 08/M05 A3021 RMK AO2 PRESFR SLP214
KOZR 
5nm SW 
230512Z AUTO 07007KT 10SM CLR 08/M04 A3020 RMK AO2 PRESFR SLP230 $
KSXS 
10nm W 
230530Z AUTO M 10SM CLR 08/M06 A3019 RMK AO2 SLP227 $
KDHN 
11nm E 
230553Z AUTO 08009KT 10SM CLR 08/M05 A3024 RMK AO2 SLP238 T00831050 10094 20083 58012
KEDN 
13nm W 
230555Z AUTO 09010KT 10SM CLR 08/M05 A3020 RMK AO2 T00781050 10093 20076
TAF
KOZR 
5nm SW 
230000Z 2300/2406 06006KT 9999 OVC200 QNH3020INS BECMG 2311/2312 07010G15KT 8000 -SHRA BKN030 OVC250 QNH3022INS BECMG 2318/2319 09012KT 9999 VCSH BKN020 OVC100 QNH3015INS BECMG 2401/2402 10012KT 8000 -SHRA OVC015 QNH3010INS TX12/2320Z TN00/2312Z
KDHN 
11nm E 
221738Z 2218/2318 06005KT P6SM FEW250 FM231000 07006KT 5SM -SHRA BR OVC025
NOTAMs
Click for the latest NOTAMs
NOTAMs are issued by the DoD/FAA and will open in a separate window not controlled by AirNav.

 

 
 

Would you like to see your business listed on this page?

 If your business provides an interesting product or service to pilots, flight crews, aircraft, or users of the Hanchey Army Heliport (Fort Rucker), you should consider listing it here.  To start the listing process, click on the button below
 
Add a business
 

Other Pages about Hanchey Army Heliport (Fort Rucker)

Update a link
 
Copyright © AirNav, LLC. All rights reserved. Privacy Policy  Contact